Location: Allie Creek
(37.5926°N, 89.8526°W)
Time: 00:23:50
(UTC+00:00)

Meteor 1-27 Rocket - Pass Details

Date: 21 April 2024
Orbit: 829 x 909 km, 81.3° (Epoch: 28 May)

Event Time Altitude Azimuth Distance (km) Brightness Sun altitude
Exits shadow 09:03:34 26° 298° (WNW) 1,655 5.0 -24.0°
Drops below altitude 10° 09:07:38 10° 343° (NNW) 2,495 6.4 -23.4°
Sets 09:10:28 0° 356° (N) 3,422 7.3 -22.9°
